VIV1356 MMMX-MMMY

Flight info

Callsign VIV1356
Flight time 1h 6m
Altitude 32000
Route AXIRI UT138 TALPU J21 SESNO UJ15E RETOS
Aircraft A21N/M-SDE1GIRWY/LB1

Departure

Time 2026-04-26 15:42
Airport Mexico City Benito Juárez International Airport (MMMX)

Arrival

Time 2026-04-26 16:49
Airport Monterrey International Airport (MMMY)
Time Latitude Longitude Altitude Speed Heading
2026-04-26 15:14 19.43220 -99.08623 7307 ft 0 kts 347°
2026-04-26 15:35 19.43198 -99.08618 7306 ft 4 kts 347°
2026-04-26 15:36 19.43171 -99.08611 7307 ft 4 kts 339°
2026-04-26 15:36 19.43156 -99.08603 7306 ft 5 kts 318°
2026-04-26 15:36 19.43148 -99.08590 7306 ft 3 kts 241°
2026-04-26 15:36 19.43149 -99.08588 7306 ft 3 kts 239°
2026-04-26 15:38 19.43147 -99.08592 7306 ft 2 kts 239°
2026-04-26 15:39 19.43129 -99.08624 7306 ft 8 kts 239°
2026-04-26 15:39 19.43092 -99.08691 7306 ft 13 kts 239°
2026-04-26 15:39 19.43036 -99.08790 7306 ft 18 kts 239°
2026-04-26 15:39 19.42990 -99.08872 7306 ft 20 kts 239°
2026-04-26 15:40 19.42883 -99.09043 7306 ft 14 kts 193°
2026-04-26 15:40 19.42856 -99.09051 7306 ft 0 kts 195°
2026-04-26 15:40 19.42845 -99.09055 7306 ft 4 kts 202°
2026-04-26 15:41 19.42808 -99.09075 7306 ft 8 kts 207°
2026-04-26 15:41 19.42761 -99.09051 7307 ft 12 kts 85°
2026-04-26 15:41 19.42809 -99.08954 7307 ft 30 kts 59°
2026-04-26 15:41 19.43055 -99.08514 7306 ft 106 kts 58°
2026-04-26 15:42 19.43564 -99.07610 7309 ft 177 kts 59°
2026-04-26 15:42 19.44268 -99.06366 7601 ft 205 kts 58°
2026-04-26 15:42 19.45007 -99.05070 8424 ft 203 kts 59°
2026-04-26 15:42 19.45719 -99.03800 9040 ft 199 kts 59°
2026-04-26 15:43 19.46431 -99.02534 9489 ft 201 kts 58°
2026-04-26 15:43 19.47135 -99.01273 9910 ft 202 kts 59°
2026-04-26 15:43 19.48618 -98.98633 10591 ft 219 kts 59°
2026-04-26 15:44 19.49411 -98.97223 10846 ft 232 kts 58°
2026-04-26 15:44 19.51164 -98.94095 11388 ft 261 kts 58°
2026-04-26 15:44 19.52121 -98.92387 11588 ft 279 kts 58°
2026-04-26 15:45 19.54488 -98.88883 12235 ft 304 kts 47°
2026-04-26 15:45 19.55932 -98.87224 12823 ft 307 kts 46°
2026-04-26 15:46 19.58862 -98.83872 14056 ft 312 kts 47°
2026-04-26 15:46 19.60337 -98.82175 14647 ft 313 kts 47°
2026-04-26 15:46 19.61817 -98.80466 15208 ft 316 kts 47°
2026-04-26 15:46 19.62805 -98.79325 15581 ft 318 kts 47°
2026-04-26 15:47 19.64820 -98.76999 16351 ft 321 kts 47°
2026-04-26 15:47 19.67872 -98.73485 17460 ft 326 kts 47°
2026-04-26 15:47 19.69446 -98.71734 18009 ft 328 kts 41°
2026-04-26 15:48 19.71347 -98.70354 18349 ft 337 kts 24°
2026-04-26 15:48 19.73639 -98.69707 18569 ft 349 kts
2026-04-26 15:48 19.76079 -98.69534 18765 ft 362 kts
2026-04-26 15:48 19.78643 -98.69414 18958 ft 375 kts
2026-04-26 15:49 19.81297 -98.69276 19139 ft 388 kts
2026-04-26 15:49 19.84037 -98.69111 19390 ft 397 kts
2026-04-26 15:49 19.86809 -98.68930 19820 ft 402 kts
2026-04-26 15:49 19.89609 -98.68741 20299 ft 404 kts
2026-04-26 15:50 19.92429 -98.68561 20756 ft 407 kts
2026-04-26 15:50 19.95258 -98.68695 21192 ft 409 kts 351°
2026-04-26 15:50 19.98009 -98.69478 21615 ft 412 kts 338°
2026-04-26 15:50 20.00540 -98.70931 22019 ft 415 kts 326°
2026-04-26 15:51 20.02880 -98.72740 22451 ft 417 kts 323°
2026-04-26 15:51 20.05208 -98.74590 22869 ft 419 kts 323°
2026-04-26 15:51 20.07538 -98.76421 23262 ft 421 kts 323°
2026-04-26 15:51 20.09910 -98.78267 23667 ft 423 kts 324°
2026-04-26 15:52 20.12296 -98.80117 24051 ft 426 kts 324°
2026-04-26 15:52 20.14698 -98.81976 24417 ft 428 kts 324°
2026-04-26 15:52 20.17103 -98.83850 24813 ft 429 kts 323°
2026-04-26 15:52 20.18703 -98.85107 25083 ft 430 kts 323°
2026-04-26 15:53 20.21927 -98.87649 25612 ft 432 kts 323°
2026-04-26 15:53 20.24326 -98.89597 26001 ft 433 kts 320°
2026-04-26 15:53 20.26634 -98.91662 26379 ft 434 kts 319°
2026-04-26 15:53 20.28943 -98.93755 26736 ft 435 kts 319°
2026-04-26 15:54 20.31257 -98.95854 27084 ft 437 kts 319°
2026-04-26 15:54 20.33579 -98.97953 27425 ft 438 kts 319°
2026-04-26 15:54 20.35904 -99.00058 27775 ft 439 kts 318°
2026-04-26 15:54 20.38247 -99.02170 28126 ft 441 kts 319°
2026-04-26 15:55 20.40642 -99.04173 28451 ft 443 kts 324°
2026-04-26 15:55 20.43359 -99.05761 28798 ft 446 kts 335°
2026-04-26 15:55 20.46327 -99.06742 29230 ft 448 kts 346°
2026-04-26 15:55 20.49433 -99.07065 29632 ft 451 kts 356°
2026-04-26 15:56 20.52573 -99.06932 30032 ft 451 kts 359°
2026-04-26 15:56 20.55666 -99.06737 30411 ft 449 kts 359°
2026-04-26 15:56 20.58817 -99.06546 30813 ft 447 kts 359°
2026-04-26 15:56 20.61888 -99.06379 31184 ft 446 kts 358°
2026-04-26 15:57 20.64983 -99.06220 31554 ft 444 kts 358°
2026-04-26 15:57 20.68057 -99.06063 31902 ft 441 kts 358°
2026-04-26 15:57 20.71126 -99.05905 32195 ft 441 kts 358°
2026-04-26 15:58 20.77245 -99.05596 32255 ft 439 kts 358°
2026-04-26 15:58 20.83340 -99.05283 32188 ft 438 kts 358°
2026-04-26 15:59 20.89402 -99.04974 32140 ft 439 kts 358°
2026-04-26 15:59 20.95506 -99.04665 32083 ft 439 kts 358°
2026-04-26 16:00 21.01614 -99.04354 32091 ft 438 kts 358°
2026-04-26 16:00 21.07715 -99.04043 32096 ft 439 kts 358°
2026-04-26 16:01 21.13836 -99.03730 32083 ft 440 kts 358°
2026-04-26 16:01 21.19954 -99.03414 32064 ft 440 kts 358°
2026-04-26 16:02 21.26054 -99.03103 32090 ft 440 kts 358°
2026-04-26 16:02 21.32166 -99.02792 32069 ft 438 kts 358°
2026-04-26 16:03 21.38270 -99.02476 32074 ft 439 kts 358°
2026-04-26 16:03 21.44365 -99.02157 32064 ft 439 kts 358°
2026-04-26 16:04 21.50430 -99.01840 32059 ft 439 kts 358°
2026-04-26 16:04 21.56533 -99.01528 32042 ft 440 kts 358°
2026-04-26 16:05 21.62644 -99.01211 32041 ft 440 kts 358°
2026-04-26 16:05 21.68756 -99.00901 32041 ft 439 kts 358°
2026-04-26 16:06 21.74865 -99.00588 32032 ft 439 kts 358°
2026-04-26 16:06 21.80972 -99.00275 32024 ft 439 kts 358°
2026-04-26 16:07 21.87082 -98.99961 32021 ft 439 kts 358°
2026-04-26 16:07 21.93164 -98.99644 32012 ft 439 kts 358°
2026-04-26 16:08 21.99276 -98.99324 32006 ft 439 kts 358°
2026-04-26 16:08 22.05385 -98.99014 32000 ft 438 kts 357°
2026-04-26 16:09 22.11442 -98.98704 31991 ft 438 kts 357°
2026-04-26 16:09 22.17547 -98.98386 31983 ft 438 kts 357°
2026-04-26 16:10 22.23651 -98.98067 31948 ft 439 kts 357°
2026-04-26 16:10 22.29756 -98.97750 31915 ft 439 kts 357°
2026-04-26 16:11 22.35863 -98.97435 31903 ft 439 kts 357°
2026-04-26 16:11 22.41972 -98.97113 31898 ft 440 kts 357°
2026-04-26 16:12 22.48048 -98.96798 31890 ft 439 kts 357°
2026-04-26 16:12 22.57195 -98.96325 31878 ft 438 kts 357°
2026-04-26 16:13 22.63297 -98.96008 31897 ft 439 kts 357°
2026-04-26 16:13 22.69402 -98.95690 31889 ft 439 kts 357°
2026-04-26 16:14 22.75503 -98.95370 31880 ft 439 kts 357°
2026-04-26 16:15 22.84666 -98.94887 31881 ft 439 kts 357°
2026-04-26 16:15 22.90760 -98.94569 31881 ft 438 kts 357°
2026-04-26 16:16 22.99903 -98.94090 31880 ft 439 kts 357°
2026-04-26 16:16 23.06002 -98.93771 31872 ft 438 kts 357°
2026-04-26 16:17 23.12096 -98.93448 31870 ft 439 kts 357°
2026-04-26 16:17 23.18142 -98.93136 31873 ft 438 kts 357°
2026-04-26 16:18 23.27295 -98.92651 31857 ft 438 kts 357°
2026-04-26 16:19 23.35382 -98.92657 31859 ft 433 kts 350°
2026-04-26 16:20 23.45366 -98.93572 31861 ft 433 kts 349°
2026-04-26 16:20 23.53395 -98.94313 31851 ft 433 kts 349°
2026-04-26 16:21 23.59347 -98.94859 31856 ft 433 kts 349°
2026-04-26 16:21 23.65356 -98.95404 31851 ft 433 kts 349°
2026-04-26 16:22 23.71365 -98.95981 31854 ft 432 kts 348°
2026-04-26 16:22 23.77349 -98.96682 31847 ft 432 kts 348°
2026-04-26 16:23 23.83284 -98.97382 31852 ft 432 kts 348°
2026-04-26 16:23 23.89264 -98.98090 31852 ft 432 kts 348°
2026-04-26 16:24 23.95235 -98.98794 31845 ft 431 kts 348°
2026-04-26 16:24 24.01202 -98.99503 31843 ft 431 kts 348°
2026-04-26 16:25 24.07192 -99.00211 31860 ft 432 kts 348°
2026-04-26 16:25 24.13175 -99.00918 31853 ft 432 kts 348°
2026-04-26 16:26 24.19116 -99.01622 31864 ft 432 kts 348°
2026-04-26 16:26 24.25100 -99.02341 31854 ft 432 kts 348°
2026-04-26 16:27 24.31094 -99.03051 31856 ft 433 kts 348°
2026-04-26 16:27 24.37075 -99.03757 31867 ft 432 kts 348°
2026-04-26 16:28 24.43060 -99.04465 31869 ft 432 kts 348°
2026-04-26 16:28 24.49051 -99.05183 31868 ft 433 kts 348°
2026-04-26 16:29 24.55018 -99.05898 31874 ft 432 kts 348°
2026-04-26 16:29 24.61022 -99.06621 31870 ft 432 kts 347°
2026-04-26 16:30 24.63994 -99.06977 31521 ft 430 kts 348°
2026-04-26 16:30 24.66975 -99.07336 31228 ft 432 kts 347°
2026-04-26 16:30 24.69965 -99.07696 30961 ft 431 kts 347°
2026-04-26 16:30 24.72938 -99.08053 30559 ft 428 kts 347°
2026-04-26 16:31 24.75900 -99.08409 30020 ft 424 kts 347°
2026-04-26 16:31 24.78823 -99.08761 29423 ft 422 kts 347°
2026-04-26 16:31 24.81737 -99.09109 28803 ft 420 kts 348°
2026-04-26 16:31 24.84641 -99.09458 28198 ft 418 kts 348°
2026-04-26 16:32 24.87525 -99.09802 27608 ft 416 kts 348°
2026-04-26 16:32 24.89424 -99.10032 27215 ft 414 kts 347°
2026-04-26 16:32 24.93063 -99.11048 26380 ft 402 kts 332°
2026-04-26 16:32 24.95436 -99.12613 25780 ft 393 kts 318°
2026-04-26 16:33 24.97393 -99.14689 25194 ft 387 kts 310°
2026-04-26 16:33 24.99198 -99.16887 24605 ft 385 kts 310°
2026-04-26 16:33 25.00990 -99.19075 24009 ft 384 kts 310°
2026-04-26 16:33 25.02763 -99.21219 23417 ft 382 kts 310°
2026-04-26 16:34 25.04563 -99.23372 22830 ft 381 kts 311°
2026-04-26 16:34 25.06361 -99.25514 22258 ft 379 kts 311°
2026-04-26 16:34 25.08155 -99.27648 21658 ft 377 kts 311°
2026-04-26 16:34 25.09940 -99.29770 21072 ft 376 kts 311°
2026-04-26 16:35 25.11718 -99.31878 20509 ft 374 kts 311°
2026-04-26 16:35 25.13484 -99.33974 19949 ft 372 kts 311°
2026-04-26 16:35 25.15237 -99.36060 19424 ft 369 kts 311°
2026-04-26 16:35 25.16956 -99.38105 18930 ft 367 kts 311°
2026-04-26 16:36 25.18693 -99.40167 18438 ft 365 kts 311°
2026-04-26 16:36 25.20487 -99.42159 17952 ft 366 kts 319°
2026-04-26 16:36 25.22645 -99.43653 17474 ft 368 kts 331°
2026-04-26 16:36 25.24968 -99.44859 16959 ft 368 kts 333°
2026-04-26 16:37 25.27301 -99.46039 16437 ft 369 kts 333°
2026-04-26 16:37 25.29634 -99.47226 15865 ft 369 kts 333°
2026-04-26 16:37 25.31951 -99.48419 15335 ft 364 kts 333°
2026-04-26 16:37 25.33464 -99.49201 15011 ft 360 kts 333°
2026-04-26 16:38 25.36474 -99.50757 14323 ft 354 kts 333°
2026-04-26 16:38 25.38695 -99.51910 13793 ft 350 kts 334°
2026-04-26 16:38 25.40867 -99.53038 13266 ft 347 kts 334°
2026-04-26 16:38 25.43044 -99.54160 12726 ft 344 kts 334°
2026-04-26 16:39 25.45198 -99.55271 12209 ft 340 kts 334°
2026-04-26 16:39 25.47303 -99.56436 11665 ft 337 kts 327°
2026-04-26 16:39 25.48967 -99.58209 11235 ft 329 kts 305°
2026-04-26 16:39 25.50160 -99.60315 10813 ft 316 kts 301°
2026-04-26 16:40 25.51253 -99.62377 10347 ft 305 kts 301°
2026-04-26 16:40 25.52323 -99.64375 9908 ft 298 kts 301°
2026-04-26 16:40 25.53386 -99.66340 9316 ft 297 kts 301°
2026-04-26 16:40 25.54454 -99.68299 8683 ft 298 kts 300°
2026-04-26 16:41 25.55531 -99.70258 8230 ft 295 kts 301°
2026-04-26 16:41 25.56587 -99.72165 8020 ft 285 kts 301°
2026-04-26 16:41 25.57602 -99.74007 7845 ft 274 kts 300°
2026-04-26 16:41 25.58559 -99.75735 7571 ft 259 kts 301°
2026-04-26 16:42 25.59475 -99.77396 7232 ft 245 kts 300°
2026-04-26 16:42 25.60324 -99.78930 7029 ft 222 kts 300°
2026-04-26 16:42 25.61113 -99.80358 6705 ft 213 kts 300°
2026-04-26 16:42 25.61872 -99.81751 6452 ft 209 kts 300°
2026-04-26 16:43 25.62618 -99.83109 6232 ft 209 kts 300°
2026-04-26 16:43 25.63364 -99.84465 5972 ft 209 kts 300°
2026-04-26 16:43 25.64134 -99.85850 5700 ft 208 kts 300°
2026-04-26 16:43 25.64893 -99.87212 5424 ft 207 kts 300°
2026-04-26 16:44 25.65671 -99.88545 5177 ft 205 kts 302°
2026-04-26 16:44 25.66430 -99.89890 5005 ft 205 kts 300°
2026-04-26 16:44 25.67177 -99.91244 4833 ft 205 kts 300°
2026-04-26 16:44 25.67909 -99.92580 4614 ft 204 kts 300°
2026-04-26 16:45 25.68643 -99.93918 4365 ft 203 kts 300°
2026-04-26 16:45 25.69375 -99.95249 4111 ft 203 kts 300°
2026-04-26 16:45 25.70105 -99.96579 3840 ft 201 kts 300°
2026-04-26 16:45 25.70828 -99.97897 3568 ft 200 kts 300°
2026-04-26 16:46 25.71551 -99.99214 3312 ft 199 kts 301°
2026-04-26 16:46 25.72249 -100.00487 3051 ft 187 kts 300°
2026-04-26 16:46 25.72906 -100.01684 2841 ft 175 kts 301°
2026-04-26 16:46 25.73504 -100.02777 2611 ft 157 kts 301°
2026-04-26 16:47 25.74060 -100.03788 2384 ft 150 kts 300°
2026-04-26 16:47 25.74598 -100.04771 2182 ft 148 kts 301°
2026-04-26 16:47 25.75133 -100.05747 1990 ft 148 kts 301°
2026-04-26 16:47 25.75667 -100.06719 1796 ft 148 kts 301°
2026-04-26 16:48 25.76197 -100.07688 1605 ft 147 kts 301°
2026-04-26 16:48 25.76729 -100.08657 1410 ft 146 kts 302°
2026-04-26 16:48 25.77255 -100.09611 1269 ft 137 kts 301°
2026-04-26 16:48 25.77673 -100.10366 1275 ft 86 kts 302°
2026-04-26 16:49 25.77855 -100.10724 1277 ft 13 kts 279°
2026-04-26 16:49 25.77861 -100.10829 1277 ft 14 kts 272°
2026-04-26 16:49 25.77862 -100.10947 1278 ft 16 kts 269°
2026-04-26 16:49 25.77862 -100.11078 1279 ft 18 kts 270°
2026-04-26 16:50 25.77914 -100.11206 1281 ft 19 kts 299°
2026-04-26 16:50 25.77975 -100.11321 1283 ft 9 kts 295°
2026-04-26 16:50 25.77931 -100.11373 1282 ft 10 kts 212°
2026-04-26 16:50 25.77921 -100.11380 1282 ft 2 kts 212°
2026-04-26 16:51 25.77916 -100.11383 1284 ft 0 kts 212°